[Iaude] MPEC J84: 2024 JW1 [a=2.64,e=0.68,i=53.2,H=18.5]
    mpec at cfa.harvard.edu 
    mpec at cfa.harvard.edu
       
    Sun May  5 13:04:58 EDT 2024
    
    
  
M.P.E.C. 2024-J84                                   Issued 2024 May 5, 17:03 UT
     The Minor Planet Electronic Circulars contain information on unusual
         minor planets, routine data on comets and natural satellites,
         and occasional editorial announcements.  They are published
    on behalf of Division F of the International Astronomical Union by the
          Minor Planet Center, Smithsonian Astrophysical Observatory,
                          Cambridge, MA 02138, U.S.A.
			  
             Prepared using the Tamkin Foundation Computer Network
                              MPC at CFA.HARVARD.EDU
            URL https://www.minorplanetcenter.net/    ISSN 1523-6714
                                    2024 JW1                                    
Observations:
     K24J01W*1C2024 05 01.14103906 42 52.016+45 34 16.93         19.34GVEJ084703
     K24J01W 1C2024 05 01.14341106 42 52.866+45 34 40.44         20.00GVEJ084703
     K24J01W 1C2024 05 01.14578506 42 53.950+45 35 03.34         19.40GVEJ084703
     K24J01W 1C2024 05 01.14815906 42 54.824+45 35 26.70         19.40GVEJ084703
     K24J01W  C2024 05 01.17899106 43 08.202+45 40 21.43         19.51GVEJ084I52
     K24J01W  C2024 05 01.17918306 43 08.267+45 40 23.34         19.40GVEJ084I52
     K24J01W  C2024 05 01.17938206 43 08.389+45 40 24.96         19.53GVEJ084I52
     K24J01W  C2024 05 01.17958906 43 08.418+45 40 27.34         19.32GVEJ084I52
     K24J01W  C2024 05 01.20871206 43 20.975+45 45 05.62         19.33GVEJ084I52
     K24J01W  C2024 05 01.20890506 43 21.029+45 45 07.02         19.95GVEJ084I52
     K24J01W  C2024 05 01.20909706 43 21.126+45 45 09.50         19.17GVEJ084I52
     K24J01W  C2024 05 01.20929006 43 21.212+45 45 11.23         19.84GVEJ084I52
     K24J01W KB2024 05 01.57631 06 46 01.67 +46 43 32.2          18.9 GVEJ084P13
     K24J01W KB2024 05 01.58456 06 46 05.30 +46 44 50.8          19.5 GVEJ084P13
     K24J01W KB2024 05 01.83500106 47 56.201+47 23 59.10         19.2 GXEJ084K74
     K24J01W KB2024 05 01.84111706 47 58.942+47 24 55.76         19.3 GXEJ084K74
     K24J01W KB2024 05 01.84723406 48 01.637+47 25 51.82         19.2 GXEJ084K74
     K24J01W KB2024 05 01.85383206 48 04.584+47 26 52.26         19.1 GXEJ084K74
     K24J01W KB2024 05 01.86091206 48 07.668+47 27 57.64         19.1 GXEJ084K74
     K24J01W mC2024 05 02.13177406 50 08.459+48 09 43.96         19.23GVEJ084I52
     K24J01W mC2024 05 02.13197906 50 08.560+48 09 45.90         19.24GVEJ084I52
     K24J01W mC2024 05 02.14043206 50 12.275+48 11 02.22               VEJ084I52
     K24J01W mC2024 05 02.14063906 50 12.368+48 11 04.60         19.42GVEJ084I52
     K24J01W KC2024 05 02.83667506 55 29.20 +49 54 45.1          19.3 GXEJ084I93
     K24J01W KC2024 05 02.83939506 55 30.43 +49 55 09.3          18.7 GXEJ084I93
     K24J01W KC2024 05 02.84198006 55 31.66 +49 55 31.3          19.6 GXEJ084I93
     K24J01W KB2024 05 02.84284106 55 31.94 +49 55 37.9          19.4 GXEJ084958
     K24J01W KB2024 05 02.84729306 55 34.06 +49 56 16.6          18.3 GXEJ084958
     K24J01W KB2024 05 02.85152506 55 35.90 +49 56 54.9          17.9 GXEJ084958
     K24J01W KC2024 05 03.00204406 56 45.862+50 18 28.55         20.2 GXEJ084G01
     K24J01W KC2024 05 03.00657206 56 47.962+50 19 08.65         18.5 GXEJ084G01
     K24J01W mC2024 05 03.13215606 57 45.832+50 37 31.26         18.79GVEJ084I52
     K24J01W mC2024 05 03.13431506 57 46.814+50 37 49.48         19.28GVEJ084I52
     K24J01W mC2024 05 03.13647306 57 47.819+50 38 07.80         19.14GVEJ084I52
     K24J01W mC2024 05 03.13665406 57 47.923+50 38 09.53         18.94GVEJ084I52
     K24J01W mC2024 05 04.14202407 05 45.204+52 57 15.34         19.10GVEJ084I52
     K24J01W mC2024 05 04.14730007 05 47.749+52 57 57.35         19.17GVEJ084I52
     K24J01W mC2024 05 04.15255507 05 50.269+52 58 38.96         19.32GVEJ084I52
     K24J01W mC2024 05 04.15782207 05 52.786+52 59 20.58         19.14GVEJ084I52
     K24J01W KB2024 05 04.52295607 08 50.548+53 47 24.94         19.6 GXEJ084Q06
     K24J01W KB2024 05 04.52996807 08 54.108+53 48 18.74         19.3 GXEJ084Q06
     K24J01W KB2024 05 04.53698007 08 57.533+53 49 12.07         19.4 GXEJ084Q06
     K24J01W KC2024 05 04.83858 07 11 26.83 +54 27 59.2          19.5 GXEJ084G02
     K24J01W 1C2024 05 04.84178 07 11 28.60 +54 28 25.4          20.8 VXEJ084033
     K24J01W 1C2024 05 04.84211 07 11 28.74 +54 28 27.9          21.2 VXEJ084033
     K24J01W 1C2024 05 04.84243 07 11 28.91 +54 28 30.3          20.9 VXEJ084033
     K24J01W 1C2024 05 04.84274 07 11 29.07 +54 28 32.7          20.8 VXEJ084033
     K24J01W KC2024 05 04.84866 07 11 31.82 +54 29 15.5          19.5 GXEJ084G02
     K24J01W KC2024 05 04.89555807 11 55.310+54 35 13.45         19.3 GVEJ084J95
     K24J01W KC2024 05 04.89689507 11 56.006+54 35 24.07         19.1 GVEJ084J95
     K24J01W KC2024 05 04.89821707 11 56.592+54 35 33.22         19.6 GVEJ084J95
     K24J01W KC2024 05 04.89959107 11 57.278+54 35 43.48         19.2 GVEJ084J95
     K24J01W KB2024 05 05.46005007 16 39.031+55 45 28.64         19.0 GXEJ084Q06
     K24J01W KB2024 05 05.46706307 16 42.521+55 46 19.15         18.2 GXEJ084Q06
     K24J01W KB2024 05 05.47407707 16 46.127+55 47 09.74         18.1 GXEJ084Q06
Observer details:
033 Karl Schwarzschild Observatory, Tautenburg.  Observers S. Melnikov, C.
    Hogner, F. Ludwig, M. Hartmann, B. Stecklum.  Measurer B. Stecklum.
    1.34-m f/3 Schmidt + CCD.
703 Catalina Sky Survey.  Observer H. Groeller.  Measurers T. Beuden, V. F.
    Carvajal, D. Fay, J. B. Fazekas, D. C. Fuls, A. R. Gibbs, A. D. Grauer, H.
    Groeller, J. K. Hogan, R. A. Kowalski, S. M. Larson, G. J. Leonard, D.
    Rankin, R. L. Seaman, F. C. Shelly, K. W. Wierzchos.  0.68-m Schmidt + 10K
    CCD.
958 Observatoire de Dax.  Observer P. Dupouy.  0.50-m f/4.5 Reflector + CMO.
G01 Universitaetssternwarte Oldenburg.  Observers T. Hoffmann, D. Gauk.
    0.40-m f/5.8 Ritchey-Chretien + CCD.
G02 KYSUCE Observatory, Kysucke Nove Mesto.  Observer M. Urbanik.  0.40-m
    f/6.8 Corrected Dall-Kirkham + CCD.
I52 Steward Observatory, Mt. Lemmon Station.  Observers V. F. Carvajal, G. J.
    Leonard.  Measurers T. Beuden, V. F. Carvajal, D. Fay, J. B. Fazekas, D.
    C. Fuls, A. R. Gibbs, A. D. Grauer, H. Groeller, J. K. Hogan, R. A.
    Kowalski, S. M. Larson, G. J. Leonard, D. Rankin, R. L. Seaman, F. C.
    Shelly, K. W. Wierzchos.  1.0-m prime focus + CCD.
I93 St Pardon de Conques.  Observer F. Losse.  0.40-m f/3.7 reflector + CCD.
J95 Great Shefford.  Observer P. Birtwhistle.  0.41-m f/6.3 Schmidt-Cassegrain
    + CCD.
K74 Muensterschwarzach Observatory, Schwarzach.  Observer C. Gerhard.  0.30-m
    f/3.75 reflector + CMO.
P13 Baihuashan Observatory, Beijing.  Observers Z. Wang, B. Liu.  Measurer Z.
    Wang.  0.28-m f/2.2 reflector + CMO.
Q06 Tarui Observatory, Tarui.  Observer H. Watanabe.  0.35-m f/1.9 Schmidt-
    Cassegrain + CMO.
Orbital elements:
2024 JW1                                                 Earth MOID = 0.1364 AU
Epoch 2024 Mar. 31.0 TT = JDT 2460400.5                 Bell                    
M 356.26144              (2000.0)            P               Q                  
n   0.22913117     Peri.  347.65439     -0.97463435     -0.04581782             
a   2.6449244      Node   195.86828     -0.06400730     -0.88086924             
e   0.6765594      Incl.   53.24256     -0.21445499     +0.47113703             
P   4.30           H   18.51          G   0.15           U   9                  
Residuals in seconds of arc
240501 703  0.7+  0.6-    240502 I52  0.0   0.2-    240504 I52  0.0   0.0
240501 703  1.0-  0.1+    240502 I52  0.1+  0.1-    240504 Q06  0.6-  0.9+
240501 703  0.3-  0.2+    240502 I52  0.1-  0.4-    240504 Q06  0.6+  0.6+
240501 703  1.7-  0.8+    240502 I52  0.1-  0.1+    240504 Q06  0.5+  0.1-
240501 I52  0.2+  0.0     240502 I93  0.5+  0.3-    240504 G02  0.5-  0.7-
240501 I52  0.0   0.1+    240502 I93  0.4+  0.3+    240504 033  0.1+  0.3+
240501 I52  0.4+  0.2-    240502 I93  1.0+  0.1-    240504 033  0.1-  0.3+
240501 I52  0.2-  0.2+    240502 958  0.0   1.4-    240504 033  0.0   0.3+
240501 I52  0.0   0.0     240502 958  0.9+  1.3-    240504 033  0.1+  0.4+
240501 I52  0.4-  0.4-    240502 958  0.0   0.3+    240504 G02  0.5-  0.6-
240501 I52  0.2-  0.2+    240503 G01  0.0   1.3-    240504 J95  0.2+  0.2-
240501 I52  0.2-  0.1+    240503 G01  0.2-  0.2-    240504 J95  0.5+  0.4+
240501 P13  0.5+  1.0-    240503 I52  0.1-  0.2+    240504 J95  0.1-  0.4-
240501 P13  0.6+  0.4+    240503 I52  0.2-  0.0     240504 J95  0.1-  0.5-
240501 K74  0.4-  0.5+    240503 I52  0.0   0.0     240505 Q06  0.0   0.4+
240501 K74  0.1+  0.7+    240503 I52  0.2+  0.2+    240505 Q06  0.3-  0.3+
240501 K74  0.1+  0.2+    240504 I52  0.4-  0.1+    240505 Q06  0.5+  0.3+
240501 K74  0.4+  0.2-    240504 I52  0.1-  0.3+
240501 K74  0.0   0.1-    240504 I52  0.0   0.2+
Ephemeris:
2024 JW1                 a,e,i = 2.64, 0.68, 53                  q = 0.8555
Date    TT    R. A. (2000) Decl.     Delta      r    Elong.  Phase     V
2024 04 05    04 34 10.9 -23 29 10   0.5012  0.8727    60.7    89.2    19.9
...
2024 04 20    05 36 16.9 +10 07 03   0.3363  0.8573    55.0   106.2    19.8
...
2024 04 28    06 21 29.8 +36 26 07   0.3355  0.8738    57.5   103.5    19.7
...
2024 05 04    07 04 38.1 +52 38 03   0.3807  0.8967    62.2    95.7    19.6
2024 05 05    07 12 48.5 +54 48 26   0.3909  0.9014    63.0    94.2    19.6
2024 05 06    07 21 17.7 +56 49 44   0.4018  0.9062    63.8    92.8    19.6
...
2024 05 12    08 19 01.8 +66 03 27   0.4759  0.9394    67.7    84.3    19.7
...
2024 05 20    09 51 05.7 +72 20 07   0.5866  0.9933    71.3    74.7    19.9
...
2024 06 04    12 29 40.4 +73 55 18   0.7935  1.1156    75.1    61.5    20.4
M. P. C. Staff               (C) Copyright 2024 MPC           M.P.E.C. 2024-J84
    
    
More information about the Iaude
mailing list